Location: Caracas
(10.5033°N, 66.8422°W)
Time: 00:16:33
(UTC-04:00)

Tiangong 2 - Pass Details

Date: 17 November 2017
Orbit: 386 x 391 km, 42.8° (Epoch: 17 November)

Event Time Altitude Azimuth Distance (km) Brightness Sun altitude
Rises 19:22:02 0° 291° (WNW) 2,256 5.8 -19.7°
Reaches altitude 10° 19:24:32 10° 271° (W) 1,401 5.0 -20.3°
Maximum altitude 19:26:47 18° 226° (SW) 1,028 4.0 -20.8°
Drops below altitude 10° 19:29:01 10° 181° (S) 1,399 4.1 -21.4°
Enters shadow 19:30:13 - 168° (SSE) 1,784 4.5 -21.6°
